Dewpoint
67 68 68 69 70 70 69 70 70 70 70 70 70 69 69 68 67 66 66 66 67 67 68 69 69 69 69 69 68 67 67 67 66 66 66 65 65 65 64 65 65 66 66 66 66 66 66 64 60 57 57 57 57 57 56 57 57 57 57 57 58 58 59 61 61 61 61 60 60 59 59 58 58 58 59 60 61 61 61 61 60 59 59 58 58 58 57 57 58 58 58 58 58 58 58 58 58 57 57 57 57 57 58
67 67 68 69 69 69 70 70 70 70 70 70 70 69 69 69 68 67 66 67 67 68 68 69 69 69 69 69 68 67 67 67 66 66 65 65 65 64 64 65 66 66 66 66 66 66 66 63 59 57 57 57 57 57 57 57 57 57 57 57 58 58 59 61 61 61 61 60 60 59 58 58 58 58 59 61 61 61 61 60 59 59 58 58 58 58 57 57 58 58 59 58 58 58 58 58 58 58 58 58 58 58 58
67 67 68 69 69 69 69 70 70 70 70 70 70 70 70 69 68 67 67 67 68 68 69 69 69 69 69 68 68 67 67 67 66 66 65 65 65 64 65 65 66 66 66 66 66 66 66 63 60 57 57 57 57 57 57 57 57 57 57 57 58 58 59 60 61 60 60 60 60 59 58 58 58 58 59 60 61 61 60 60 59 58 58 58 58 57 57 58 58 58 59 59 58 58 58 58 58 58 58 57 57 58 58
67 68 68 68 68 68 68 69 70 70 71 71 71 70 70 69 68 68 68 68 68 68 68 69 69 69 69 68 68 67 67 67 66 66 65 65 65 65 65 65 66 66 66 66 66 65 64 63 60 58 57 57 57 57 57 57 57 57 57 58 58 58 60 60 60 60 60 59 59 59 58 58 57 58 59 60 61 61 60 59 59 58 58 57 57 57 57 57 58 58 58 58 58 58 58 58 58 57 57 57 57 57 57
67 68 69 68 68 68 68 68 69 70 71 71 71 71 70 69 69 68 69 69 69 69 68 68 69 69 68 68 68 67 67 67 66 66 65 65 65 65 65 66 66 66 66 66 66 65 62 62 60 58 57 57 57 57 57 57 57 57 57 58 58 59 60 60 59 59 59 59 59 58 58 57 57 58 59 60 60 60 60 59 58 58 57 57 56 56 56 57 57 57 57 57 57 57 57 57 57 56 56 56 55 55 55
68 68 68 68 68 68 68 68 69 70 71 71 71 70 69 69 69 69 69 69 69 69 69 68 68 68 68 68 67 67 67 67 66 66 66 65 65 65 65 66 66 66 66 66 65 65 63 60 58 58 57 57 57 56 57 57 57 57 57 58 58 59 60 59 59 59 59 59 58 58 58 57 57 58 59 60 60 60 60 59 58 58 57 57 56 56 55 56 56 56 56 56 56 56 56 56 56 55 55 55 55 54 55
68 68 68 68 67 67 68 68 69 70 71 71 70 70 69 69 69 69 69 69 69 69 69 69 69 68 68 68 67 67 67 67 66 66 66 66 66 66 66 66 66 66 66 66 65 65 63 59 58 58 58 57 57 57 57 57 57 57 57 58 59 59 60 59 59 59 59 58 58 58 57 57 57 58 59 60 60 60 59 59 58 58 57 57 56 55 54 54 54 55 55 56 56 55 55 55 55 55 55 54 54 54 54
69 68 68 68 67 68 68 68 69 70 71 71 70 69 70 70 70 70 69 69 69 69 69 69 69 69 68 67 67 67 67 67 67 67 66 66 66 66 66 66 67 67 66 66 65 65 65 61 59 58 58 58 58 58 57 57 57 57 57 58 59 59 60 59 59 59 58 58 58 57 57 57 57 58 58 59 60 60 60 59 58 58 57 57 56 55 54 54 54 54 54 55 55 55 55 55 54 54 54 54 55 55 55
69 69 68 68 68 68 68 69 70 70 70 70 69 69 70 70 70 70 70 69 69 69 69 69 70 69 68 67 67 67 67 67 67 67 67 66 66 66 66 67 67 67 66 66 65 65 65 62 60 58 58 58 58 58 57 56 56 57 57 58 58 59 60 59 59 59 58 58 58 57 57 57 57 57 58 59 59 60 60 59 58 58 57 56 56 55 54 54 53 53 53 54 54 54 54 54 54 54 54 55 55 55 56
69 69 68 68 68 68 68 69 70 70 70 69 69 69 70 70 70 70 70 69 69 69 69 70 70 69 68 67 67 67 67 67 67 67 67 66 66 66 66 67 67 67 67 66 65 65 64 63 60 59 59 58 58 58 58 57 57 57 58 58 59 60 60 59 59 59 58 58 58 57 57 57 56 56 57 58 58 59 59 58 58 58 57 56 56 55 55 54 54 53 53 53 53 54 54 54 54 54 55 55 55 55 55
69 69 68 68 67 67 68 69 70 70 70 69 69 69 70 71 71 70 70 69 69 69 70 70 70 70 68 67 67 67 67 67 67 67 66 66 66 66 67 67 67 67 67 66 65 64 64 62 60 59 59 58 58 58 58 58 58 58 58 59 60 60 60 59 59 59 59 58 58 58 57 57 56 56 56 56 57 57 58 58 57 57 56 56 55 55 55 54 54 53 53 53 53 53 54 54 54 55 55 55 55 56 56
69 69 69 68 67 67 67 69 70 70 70 69 69 69 70 70 70 70 70 70 70 70 70 70 70 70 69 67 67 67 67 67 67 66 66 66 66 66 67 67 67 67 67 66 65 64 63 61 60 59 59 58 58 58 58 59 58 58 59 60 61 61 60 59 59 59 59 58 58 58 57 57 56 56 55 55 55 55 56 56 56 55 55 55 54 54 54 54 54 53 53 53 52 53 53 54 54 54 55 55 55 56 56
70 69 69 68 67 67 67 68 69 69 69 69 69 69 70 70 70 69 69 69 69 70 70 70 70 69 69 68 67 67 67 67 66 66 66 66 66 66 67 67 67 67 66 66 65 64 62 60 59 59 59 59 59 59 60 59 59 59 59 61 61 61 60 59 59 59 59 59 58 58 58 57 57 56 55 55 54 54 54 54 54 54 53 53 53 53 53 53 53 53 52 52 52 52 53 53 53 54 54 54 55 55 56
69 69 68 68 67 67 67 67 68 69 69 69 69 69 70 69 69 68 68 68 69 69 69 69 69 69 69 68 67 67 66 66 66 65 65 65 66 66 67 67 67 66 66 65 64 63 61 60 59 58 59 59 60 60 62 60 60 60 60 61 61 61 60 59 59 59 59 59 58 58 58 58 57 57 56 55 54 54 53 53 52 52 51 51 51 51 51 51 51 51 51 51 51 52 52 52 53 53 53 54 54 55 55
68 68 67 68 68 68 67 67 67 68 69 69 69 69 69 69 68 67 67 68 68 68 69 69 69 69 68 68 67 66 66 66 66 65 65 65 66 66 67 67 66 66 66 64 63 61 61 60 59 59 59 60 60 61 61 60 60 60 60 61 61 61 60 59 59 59 59 59 59 59 59 58 58 58 57 56 55 54 54 53 52 51 50 50 50 50 49 50 50 50 50 51 51 51 52 52 52 53 53 54 54 54 55
67 67 67 68 68 68 68 67 67 67 68 69 69 69 69 68 68 67 67 67 67 68 68 68 68 68 68 67 67 66 65 66 66 65 65 66 66 66 67 67 66 65 64 63 62 60 59 59 59 60 60 60 60 60 60 60 60 61 61 61 61 61 60 59 59 59 59 59 59 59 59 59 58 58 58 57 56 55 55 54 53 52 52 51 51 50 50 50 50 50 51 51 52 52 52 52 53 53 53 54 54 55 55
67 67 67 68 68 68 68 67 67 67 68 68 68 69 69 68 68 67 67 67 67 67 68 68 68 68 68 67 67 66 64 64 64 65 65 66 66 67 67 66 65 64 62 62 61 59 59 58 59 60 60 59 59 60 60 60 61 62 62 62 62 61 60 59 59 58 58 59 59 59 59 59 59 58 58 57 57 56 56 55 55 54 54 53 53 52 52 52 52 52 52 52 53 53 53 53 53 54 54 54 55 55 55
66 67 67 68 68 68 68 67 67 67 68 68 68 69 69 69 68 68 67 67 67 67 68 68 68 68 67 67 66 64 63 62 62 63 63 65 66 67 67 66 64 63 61 60 59 59 58 58 59 60 60 59 59 59 60 61 62 62 62 62 62 62 61 60 59 58 58 58 59 59 59 59 59 59 58 58 58 57 57 57 57 56 56 55 55 54 54 54 54 54 54 54 54 54 54 54 54 54 54 55 55 55 56
66 67 67 67 67 68 67 67 68 68 68 68 68 68 68 68 68 68 67 67 68 68 68 68 68 67 67 66 65 63 62 61 61 61 61 63 65 66 66 64 63 61 59 59 58 58 58 58 58 59 60 59 58 59 60 61 61 62 62 62 62 62 61 60 59 59 58 58 58 59 59 59 59 59 59 58 58 58 58 58 58 57 57 57 56 56 56 55 55 55 54 55 55 55 55 55 55 55 55 55 56 56 56
66 67 67 67 67 67 67 68 68 68 68 68 68 68 68 68 68 68 68 68 68 68 68 68 68 67 67 65 63 62 61 60 60 60 60 61 63 63 63 62 61 59 58 58 58 58 58 58 58 59 59 58 58 58 59 61 62 62 62 62 62 62 62 61 60 59 58 58 58 59 59 59 60 60 59 59 59 59 58 58 58 58 58 58 58 57 57 57 57 56 56 56 56 56 56 56 56 56 56 56 56 57 57
66 66 66 66 67 67 67 67 67 68 68 68 68 68 68 68 68 68 68 67 67 67 68 67 66 65 64 63 62 61 60 59 58 58 58 60 60 61 61 60 59 58 58 57 57 58 58 58 59 59 58 58 58 58 58 62 63 62 62 62 63 62 62 61 60 60 59 59 58 58 59 59 60 60 60 60 59 59 59 59 59 58 58 58 58 58 58 58 58 58 57 57 57 57 57 57 57 57 57 57 57 57 57
64 64 64 64 64 65 65 65 65 66 66 67 67 67 67 68 68 68 68 67 66 65 66 65 63 63 63 62 61 60 59 59 58 56 56 57 58 58 59 58 58 58 57 57 58 58 58 59 59 59 58 58 58 58 58 61 62 62 62 62 62 63 63 62 61 61 60 59 59 59 59 59 60 60 60 60 60 59 59 59 59 59 59 59 59 59 59 59 59 58 58 58 58 58 58 58 58 58 58 58 58 58 58
63 63 63 62 62 63 63 63 63 63 63 65 65 65 66 67 68 68 68 68 66 63 63 62 62 62 62 61 60 60 59 58 58 56 54 55 56 56 57 57 57 57 56 57 58 58 59 59 59 59 58 58 58 58 58 61 62 62 62 62 62 63 63 63 62 62 61 60 60 60 59 59 60 60 60 60 60 60 60 60 60 59 59 59 59 59 59 59 59 59 59 59 59 59 58 58 58 58 58 58 58 58 58
63 62 61 61 61 62 62 62 62 62 62 63 63 63 64 67 67 68 68 68 67 64 62 62 61 61 61 61 60 59 59 58 57 56 55 54 54 54 55 55 55 56 56 56 58 58 59 60 59 59 58 58 58 58 59 61 62 62 62 62 62 63 63 63 63 63 62 61 61 60 60 60 60 60 60 60 60 60 60 60 60 60 60 60 60 60 60 60 60 60 60 60 60 59 59 59 59 59 59 59 59 59 59
63 62 61 61 61 61 62 61 61 62 62 62 61 61 62 64 67 67 67 68 67 65 62 61 61 61 60 60 60 59 59 58 56 55 55 54 54 54 54 55 55 55 56 56 57 58 59 59 59 58 58 58 58 58 59 61 62 62 62 62 62 63 63 63 63 63 63 62 62 61 61 61 61 60 60 61 61 61 61 61 61 61 61 60 60 60 60 60 61 61 61 60 60 60 60 60 60 60 60 60 60 60 59
63 62 61 61 61 62 62 62 62 62 62 62 61 61 60 63 65 67 67 68 67 65 62 61 60 60 60 59 59 59 58 57 56 54 54 54 53 53 54 54 55 55 55 56 57 58 58 58 58 58 58 58 58 58 58 60 61 61 61 62 62 63 63 63 63 63 63 63 63 62 62 61 61 61 61 61 61 61 61 61 61 61 61 61 61 61 61 61 61 61 61 61 61 61 61 61 61 61 61 60 60 60 60
62 61 60 61 61 62 62 62 62 62 62 62 61 61 60 62 65 67 67 67 66 64 62 60 60 60 59 59 59 58 58 57 55 54 53 53 53 53 54 54 54 55 55 56 56 57 58 58 58 57 57 57 57 57 57 59 59 60 60 61 61 62 63 63 63 63 64 64 63 63 63 62 62 62 61 61 61 61 61 61 61 62 62 62 62 62 62 62 62 62 62 62 62 62 62 62 62 62 61 61 61 61 61
62 61 60 61 61 62 62 61 61 62 62 62 61 60 59 62 64 66 67 66 65 63 62 61 60 60 60 59 59 58 57 56 54 54 53 53 53 53 53 54 54 54 55 55 56 56 57 57 57 56 56 56 56 56 56 58 59 60 58 59 60 61 62 62 63 63 63 63 63 63 63 63 62 62 61 61 61 61 61 61 61 61 62 62 63 63 63 63 64 64 64 64 64 63 63 63 63 63 62 62 62 62 63
61 61 61 61 61 62 62 61 61 61 62 61 61 60 58 60 63 65 65 65 65 63 62 61 60 60 60 59 58 58 57 55 54 53 53 53 52 52 52 53 53 54 54 54 55 55 55 56 56 55 55 55 55 55 55 57 58 58 58 58 59 60 61 62 62 63 63 63 63 63 63 63 62 62 61 61 60 60 60 61 61 61 61 62 63 63 64 64 65 65 65 65 65 65 65 65 65 64 64 63 63 63 63
62 63 64 62 62 61 61 60 60 61 62 61 60 59 58 59 62 64 64 64 65 64 63 61 60 60 59 59 58 58 57 56 55 54 52 52 51 51 51 51 52 53 54 54 54 54 55 55 55 55 54 54 54 54 54 54 56 57 58 58 58 59 60 61 61 62 62 63 63 63 63 63 62 62 61 61 60 60 60 60 60 61 61 62 62 63 63 64 65 65 66 66 66 66 66 66 66 66 65 65 65 65 64
64 65 65 63 62 61 61 60 60 61 61 61 60 59 58 59 60 62 63 63 63 64 63 62 60 59 59 58 58 57 57 57 56 54 53 52 51 50 50 49 50 51 52 53 54 54 54 54 54 54 54 53 53 52 52 53 54 56 58 58 58 58 59 59 60 61 62 62 63 63 63 63 63 62 61 61 61 60 60 60 60 61 61 61 62 62 63 63 64 64 65 65 65 66 66 66 66 66 66 66 66 66 66
65 65 64 63 61 61 61 60 60 60 61 61 60 59 59 59 60 61 63 63 63 63 63 63 61 60 59 58 58 58 58 57 57 55 54 52 51 50 50 49 49 49 50 52 52 53 54 54 54 53 52 52 51 51 51 51 52 54 57 58 58 58 58 59 59 60 61 62 62 63 63 63 63 63 62 61 61 61 60 60 60 60 61 61 61 62 62 62 63 63 63 63 64 64 65 65 66 66 66 66 66 66 66
65 64 63 62 61 60 61 60 60 60 61 61 59 59 60 60 60 61 62 63 63 63 63 63 62 60 59 58 58 58 58 57 56 55 54 53 52 51 50 49 49 49 50 50 50 51 52 53 52 51 50 50 49 49 49 49 49 51 54 57 58 58 58 58 59 59 60 61 61 62 63 63 63 63 63 62 61 61 61 60 60 60 60 60 61 61 61 62 62 62 62 62 63 63 63 64 64 64 65 65 65 66 66
64 63 63 62 61 60 60 60 60 60 61 60 60 59 60 60 61 62 62 63 63 63 62 62 62 61 59 57 57 57 58 57 56 55 54 53 53 52 51 50 50 50 50 49 49 49 51 50 50 49 49 48 48 48 48 48 49 50 51 54 56 58 58 58 58 59 59 60 61 61 62 63 63 63 63 62 62 61 61 61 60 60 60 60 60 60 61 61 61 61 62 62 62 62 62 62 62 63 63 63 64 64 65
64 63 63 62 61 61 61 60 60 60 61 60 60 60 60 61 62 62 62 62 62 62 62 62 61 61 59 56 55 54 55 55 54 54 53 52 52 52 52 51 51 51 50 49 49 49 50 49 49 48 48 47 47 47 48 48 49 49 50 53 55 56 58 58 58 58 59 59 60 60 61 62 62 63 63 62 62 61 61 61 61 60 60 60 60 60 60 60 60 61 61 61 62 62 62 62 62 62 62 62 62 63 63
64 63 63 62 62 61 61 60 60 60 61 61 60 61 61 62 62 62 62 62 62 62 61 61 61 61 59 57 54 53 53 54 53 53 52 52 52 52 52 51 51 51 50 49 50 50 50 49 49 48 48 47 47 47 48 48 49 49 49 51 52 54 55 56 57 58 59 59 59 59 60 60 61 62 63 62 62 62 61 61 61 61 61 61 61 60 60 60 60 60 60 61 61 61 61 61 62 62 62 62 61 61 61
64 64 63 63 62 61 61 60 59 60 60 61 61 61 61 62 62 62 61 61 61 61 61 61 61 61 60 58 55 53 52 53 52 52 52 52 52 52 51 51 51 51 50 50 51 52 50 49 49 49 49 48 48 48 47 48 49 49 49 50 50 51 52 53 54 55 58 58 59 59 59 59 60 61 62 62 62 62 62 62 62 61 61 61 61 61 61 60 60 60 60 60 61 61 61 61 61 61 61 61 61 61 61
63 63 64 63 63 62 61 60 60 60 60 60 61 61 61 61 61 61 61 61 61 61 61 60 60 60 60 58 57 55 53 53 52 52 51 52 52 51 50 51 51 51 50 51 52 53 51 50 49 49 49 49 49 48 47 48 48 48 48 49 49 49 49 50 50 51 54 57 58 59 59 59 59 59 60 61 61 62 62 62 62 62 62 62 62 61 61 61 61 61 60 60 60 60 60 60 60 60 60 61 61 61 61
63 63 63 64 63 63 61 60 60 60 60 60 60 60 61 61 61 61 61 61 61 61 61 60 60 60 59 59 58 57 55 54 54 54 53 53 52 51 51 52 52 51 51 52 52 52 51 50 50 50 50 50 49 48 48 47 47 47 48 48 48 48 48 48 49 49 50 53 55 58 58 58 58 58 59 59 60 60 61 61 61 62 62 62 62 62 62 61 61 61 61 61 61 61 61 60 60 60 60 60 61 61 61
63 63 63 63 63 63 61 60 60 60 60 60 60 60 60 60 60 60 60 60 61 61 61 61 60 59 59 59 58 58 57 57 56 56 56 55 54 54 54 54 54 53 53 53 53 53 52 51 50 50 50 50 50 49 47 46 46 46 46 47 46 46 46 47 47 48 47 49 51 54 57 58 58 58 58 58 59 59 60 60 60 61 61 61 61 61 61 61 61 61 61 61 61 61 61 61 61 61 61 61 61 61 61
63 63 63 63 63 63 62 60 60 60 59 59 59 59 60 59 59 59 60 60 60 60 61 61 61 60 59 59 58 58 58 58 57 57 56 55 55 55 55 55 55 54 54 54 54 54 53 52 51 50 50 50 50 49 47 46 46 46 46 46 46 46 47 48 48 47 46 47 49 51 54 58 58 58 58 58 58 58 58 59 59 60 60 60 60 61 61 61 61 61 61 61 62 62 62 62 62 61 61 61 61 61 61
63 63 63 63 63 63 63 61 60 59 59 59 59 59 59 59 59 59 59 59 59 59 59 61 61 61 60 59 58 58 58 57 57 56 56 55 55 54 55 55 54 54 55 55 54 54 54 53 52 51 51 51 50 49 48 47 46 46 46 46 46 47 48 49 48 47 47 47 48 49 52 57 58 58 58 58 58 58 58 58 58 59 59 59 60 60 60 60 61 61 61 61 62 62 62 62 62 62 62 62 62 61 61
62 62 63 63 63 63 63 61 60 59 59 59 59 58 58 58 58 58 58 58 58 58 58 59 60 61 61 60 59 58 58 56 56 56 55 55 54 54 54 54 54 54 54 54 54 54 54 54 53 53 53 51 49 49 49 48 47 47 46 46 46 47 48 49 49 49 49 50 49 50 51 54 57 58 58 58 58 58 58 58 58 58 58 58 59 59 59 60 60 61 61 61 62 62 62 62 62 62 62 62 62 62 62
62 62 63 63 63 63 63 62 60 60 59 59 58 58 58 58 58 58 58 58 58 57 58 58 59 60 61 60 59 58 57 56 55 55 55 54 54 54 54 54 54 54 54 53 53 53 53 53 54 54 53 51 49 49 48 48 48 47 47 47 47 48 49 50 50 51 52 53 52 51 51 53 54 56 57 57 57 57 57 58 58 58 58 58 58 58 59 59 59 60 60 61 61 61 62 62 62 62 62 62 62 62 62
62 62 62 62 62 62 62 61 60 60 59 59 58 58 58 58 58 58 57 57 57 56 56 57 58 58 58 58 58 58 57 56 55 55 54 54 54 54 54 53 53 52 52 51 52 52 52 53 53 52 51 50 49 49 48 48 48 48 48 48 48 49 50 51 51 52 52 53 52 51 52 52 53 54 54 55 55 55 56 57 57 58 58 58 58 58 58 58 58 59 59 60 61 61 61 61 62 62 62 62 62 62 62
61 62 62 62 62 61 61 60 60 59 59 58 58 58 57 57 57 57 57 57 57 56 55 55 56 56 57 57 57 57 56 56 55 55 54 54 53 53 52 51 51 50 49 49 50 50 51 52 52 51 50 49 49 49 49 49 49 49 48 48 48 49 50 51 51 52 51 52 51 51 52 52 52 52 51 52 52 53 54 56 57 57 57 57 57 57 57 57 57 58 58 59 60 60 61 61 61 61 61 62 62 62 62
61 61 62 61 61 60 60 59 59 59 58 58 58 57 57 57 57 57 56 56 56 56 55 55 55 55 55 55 55 54 54 54 54 54 54 53 52 51 50 50 49 49 49 49 49 49 50 50 50 49 49 49 49 48 48 49 49 48 47 47 48 48 49 50 50 51 51 50 50 51 52 52 51 51 50 50 50 51 52 54 56 57 57 56 56 56 56 56 57 57 58 58 59 60 60 60 61 61 61 61 61 62 62
61 61 61 60 60 59 59 59 59 58 58 58 57 57 57 56 56 56 57 56 56 56 56 55 55 54 54 54 53 52 52 53 54 54 53 52 51 51 50 49 48 48 47 47 48 48 49 48 48 48 48 48 48 47 47 47 48 47 46 47 46 46 46 48 49 49 49 49 49 51 52 52 51 50 49 49 49 50 51 52 54 56 57 56 56 56 56 56 56 56 57 58 58 59 59 60 60 60 61 61 61 61 62
60 60 60 60 59 59 58 58 58 58 58 58 57 57 57 56 56 57 57 57 57 57 57 56 55 54 54 54 53 52 52 52 52 53 53 52 51 50 49 48 47 46 45 46 47 47 48 47 47 47 47 47 46 46 46 46 46 46 45 45 44 44 44 45 47 48 49 49 50 51 53 52 51 50 49 49 49 50 50 51 52 54 55 56 56 56 56 56 56 56 56 57 57 58 58 59 59 60 60 60 61 61 61
60 60 60 59 59 58 58 58 58 58 58 58 57 57 57 57 57 57 57 57 57 57 56 56 55 54 54 53 53 52 51 50 51 52 53 52 50 49 47 45 45 44 43 45 46 47 46 45 45 45 45 45 45 45 45 45 45 45 45 45 44 44 45 46 47 48 49 50 51 52 52 52 52 51 50 50 50 50 50 51 52 52 54 54 55 56 56 56 56 56 56 56 56 57 57 58 58 59 59 60 60 60 60
60 60 59 59 58 58 58 58 58 58 58 58 57 57 57 57 57 57 56 56 56 56 55 54 54 54 54 54 53 52 50 50 51 52 52 51 49 48 45 44 42 41 40 42 45 47 46 45 45 45 45 45 44 44 44 44 44 45 45 45 45 45 45 46 48 49 49 50 51 52 52 52 52 52 51 51 51 51 51 52 52 52 53 53 53 53 54 55 55 56 56 55 55 56 56 57 58 58 58 59 59 59 60
60 60 59 58 58 58 58 58 58 58 58 57 57 57 57 57 57 56 56 55 55 55 55 54 53 52 52 53 52 50 50 50 51 52 52 50 48 47 47 45 41 38 35 36 40 44 46 45 45 45 44 44 44 44 44 44 45 45 46 46 46 46 47 48 49 49 49 49 50 51 52 53 53 53 52 51 51 52 52 52 52 52 52 52 52 52 53 54 55 55 55 55 55 55 55 56 57 57 58 58 58 59 59
60 59 59 58 58 58 58 58 58 58 57 57 56 56 56 56 56 55 55 55 55 54 54 53 52 51 51 51 51 50 49 49 50 51 52 49 47 46 46 44 40 36 37 35 33 35 42 42 42 43 44 44 44 44 45 45 46 47 49 49 48 48 48 48 49 49 49 49 49 51 52 53 53 53 53 53 52 52 52 52 52 52 52 52 52 52 53 54 55 56 55 54 54 54 55 55 56 56 57 58 58 58 59
59 59 58 58 58 58 57 58 58 58 57 57 56 55 55 55 54 54 54 54 54 54 54 53 52 51 51 51 51 50 49 49 50 51 51 49 48 45 44 41 40 41 43 37 31 28 32 37 38 39 44 45 45 45 46 47 48 48 49 48 47 47 47 48 49 49 49 49 49 50 51 52 53 53 53 53 53 53 52 52 52 53 52 52 53 53 53 53 54 55 54 55 55 54 54 54 55 55 56 57 57 58 58
59 58 58 58 58 57 57 58 58 58 57 56 56 55 54 54 54 54 53 53 53 53 53 53 53 53 52 52 52 51 50 49 49 49 49 49 49 46 43 43 42 41 41 38 32 29 29 36 37 37 40 43 44 45 46 47 47 47 47 47 46 46 46 47 48 48 48 49 50 51 51 51 52 52 53 53 53 53 52 53 53 53 53 53 53 53 52 53 54 54 54 54 55 56 54 54 54 55 55 56 57 58 58
58 58 58 58 57 57 57 57 57 57 57 56 55 54 54 54 53 53 52 52 53 53 53 53 53 54 54 53 52 51 49 48 48 48 47 48 49 48 46 44 40 37 33 32 31 32 38 39 37 36 38 42 42 42 44 46 45 45 46 45 44 44 45 46 47 48 48 49 51 51 52 52 52 52 53 53 53 53 54 54 54 54 54 53 53 53 52 53 53 53 53 53 54 55 55 54 54 55 55 56 57 58 58
58 58 57 57 57 57 57 57 57 57 56 56 55 54 54 54 53 53 52 52 52 53 53 54 54 54 55 54 52 50 49 48 47 47 47 47 48 48 48 45 42 39 37 36 36 37 41 41 37 33 36 42 43 42 42 44 44 43 44 43 43 44 45 46 47 48 49 50 51 52 53 53 53 52 52 52 53 53 54 54 54 54 54 54 54 53 52 52 52 52 52 52 53 54 55 54 54 54 55 56 57 58 58
58 58 57 57 57 57 57 56 56 56 56 56 55 54 54 54 53 53 52 52 52 53 53 54 54 54 55 55 53 51 49 48 47 47 47 48 48 48 48 47 46 46 45 43 42 41 41 39 37 35 35 38 42 45 45 43 42 42 42 43 44 45 45 46 47 48 49 50 51 52 52 52 52 52 52 52 53 53 54 54 54 54 54 54 54 53 52 52 52 52 52 52 52 53 53 53 54 54 55 56 57 58 58
58 57 57 57 57 57 57 56 56 56 56 56 55 54 54 53 53 53 52 52 52 53 54 54 54 54 55 55 54 52 49 49 48 47 47 47 48 48 48 47 46 46 45 45 44 43 42 39 38 38 39 36 37 41 46 45 43 42 42 44 45 45 46 47 48 49 49 50 51 51 52 52 52 52 53 53 53 53 53 54 54 54 54 54 54 54 53 53 53 53 54 54 53 53 52 53 53 54 55 56 57 58 58
58 57 57 57 57 56 56 56 56 56 55 55 55 54 54 53 53 53 52 52 52 53 54 54 54 54 54 54 54 52 50 49 49 48 47 47 46 47 47 46 45 45 45 45 45 44 44 42 41 41 41 40 38 38 40 43 45 46 45 45 45 46 47 48 49 49 50 51 51 51 51 51 52 52 52 52 53 53 53 54 54 54 54 54 54 54 53 53 53 54 54 54 53 53 52 53 53 54 55 56 57 58 58
58 57 57 56 56 56 56 55 55 55 55 55 54 54 54 54 53 53 52 52 52 52 53 54 54 54 54 54 53 53 51 50 49 49 49 47 46 46 47 45 45 45 45 45 45 45 44 44 45 45 44 44 42 40 38 39 42 45 46 47 48 48 49 50 50 51 51 51 51 51 52 52 52 52 52 52 53 53 54 54 54 54 54 54 54 53 53 53 52 52 53 53 52 52 52 52 53 54 54 56 57 57 58